Simultaneous Nadir Overpasses (SNOs) Predictions

Prediction of SNOs between GOES-16 and LANDSAT-8 Satellite Orbit:

Table of predicted SNOs for the next 14.0 days since TLE Epoch: 8/13/2022
Index Date Time (GOES-16) GOES-16 Lat,Lon LANDSAT-8 Lat,Lon Distance(km) Time Diff (sec)
1 08/13/2022 03:31:18 0.03, -75.18 0.00, -79.31 459.02 80
2 08/14/2022 14:57:31 -0.03, -75.20 -0.96, -71.00 478.95 80
3 08/15/2022 03:18:54 0.03, -75.20 -0.17, -76.18 112.25 80
4 08/17/2022 03:04:03 0.03, -75.21 0.45, -73.23 225.99 80
5 08/17/2022 15:25:19 -0.03, -75.23 0.62, -78.39 358.53 80
6 08/19/2022 15:13:08 -0.02, -75.25 -0.00, -75.43 19.75 80
7 08/21/2022 15:00:56 -0.01, -75.28 -0.58, -72.46 319.85 80
8 08/22/2022 03:25:01 0.00, -75.28 -0.48, -77.66 270.63 80
9 08/24/2022 03:10:09 -0.00, -75.31 0.10, -74.69 69.28 80
10 08/26/2022 02:57:58 -0.00, -75.34 0.76, -71.74 409.63 80
11 08/26/2022 15:19:14 0.00, -75.36 0.32, -76.90 174.45 80
